Station History from Weather Underground


Station Historical Data
 
Daily Summary for July 20, 2019 Units:  English    Metric   Both
« Previous Day
Next Day »
Daily Weekly Monthly Yearly Custom
  Current: High: Low: Average:
Temperature: 65.2 °F 71.7 °F 65.2 °F 68.2 °F
Dew Point: 58.5 °F 65.2 °F 56.6 °F 62.3 °F
Humidity: 79% 87% 68% 82%
Wind Speed: 3.5mph 4.6mph 0mph 0.6mph
Wind Gust: 1.1mph 1.7mph - -
WindNE - - East
Pressure: 29.87 in 29.96 in 29.69 in -
Precipitation: 0.02 in      
Historical Graphs
 
 
Tabular Data for July 20, 2019
Time Temperature Dew Point Pressure Wind Wind Speed Wind Gust Humidity Rainfall Rate (Hourly) solar Conditions
00:04 71.7 °F 65.2 °F 29.69 in Calm     80% 0 in 0.00 W/m2 CLR
00:09 71.5 °F 65 °F 29.69 in Calm     80% 0 in 0.00 W/m2 CLR
00:14 71.4 °F 64.9 °F 29.70 in Calm     80% 0 in 0.00 W/m2 CLR
00:19 71.3 °F 65.2 °F 29.70 in Calm     81% 0 in 0.00 W/m2 CLR
00:24 71.2 °F 65.1 °F 29.70 in Calm     81% 0 in 0.00 W/m2 CLR
00:29 71.2 °F 65.1 °F 29.70 in Calm     81% 0 in 0.00 W/m2 CLR
00:34 71 °F 64.9 °F 29.70 in Calm     81% 0 in 0.00 W/m2 CLR
00:39 71 °F 64.9 °F 29.70 in Calm     81% 0 in 0.00 W/m2 CLR
00:44 70.8 °F 64.7 °F 29.70 in Calm     81% 0 in 0.00 W/m2 CLR
00:49 70.7 °F 64.6 °F 29.70 in Calm     81% 0 in 0.00 W/m2 CLR
00:54 70.7 °F 64.6 °F 29.71 in Calm     81% 0 in 0.00 W/m2 CLR
00:59 70.6 °F 64.5 °F 29.71 in Calm     81% 0 in 0.00 W/m2 CLR
01:04 70.6 °F 64.5 °F 29.71 in Calm     81% 0 in 0.00 W/m2 CLR
01:09 70.5 °F 64.7 °F 29.71 in Calm     82% 0 in 0.00 W/m2 CLR
01:14 70.4 °F 64.6 °F 29.71 in Calm     82% 0 in 0.00 W/m2 CLR
01:19 70.3 °F 64.5 °F 29.72 in Calm     82% 0 in 0.00 W/m2 CLR
01:24 70.2 °F 64.4 °F 29.71 in Calm     82% 0 in 0.00 W/m2 CLR
01:29 70.1 °F 64.3 °F 29.71 in Calm     82% 0 in 0.00 W/m2 CLR
01:34 70 °F 64.2 °F 29.71 in Calm     82% 0 in 0.00 W/m2 CLR
01:39 70 °F 64.6 °F 29.71 in Calm     83% 0 in 0.00 W/m2 CLR
01:44 69.9 °F 64.5 °F 29.71 in Calm     83% 0 in 0.00 W/m2 CLR
01:49 69.7 °F 64.3 °F 29.71 in Calm     83% 0 in 0.00 W/m2 CLR
01:54 69.6 °F 64.2 °F 29.70 in Calm     83% 0 in 0.00 W/m2 CLR
01:59 69.4 °F 64 °F 29.71 in Calm     83% 0 in 0.00 W/m2 CLR
02:04 69.3 °F 63.9 °F 29.70 in Calm     83% 0 in 0.00 W/m2 CLR
02:09 69.1 °F 63.7 °F 29.70 in Calm     83% 0 in 0.00 W/m2 CLR
02:14 69 °F 63.6 °F 29.70 in Calm     83% 0 in 0.00 W/m2 CLR
02:19 68.9 °F 63.5 °F 29.70 in Calm     83% 0 in 0.00 W/m2 CLR
02:24 68.8 °F 63.8 °F 29.70 in Calm     84% 0 in 0.00 W/m2 CLR
02:29 68.6 °F 63.6 °F 29.70 in Calm     84% 0 in 0.00 W/m2 CLR
02:34 68.5 °F 63.5 °F 29.70 in Calm     84% 0 in 0.00 W/m2 CLR
02:39 68.5 °F 63.5 °F 29.70 in Calm     84% 0 in 0.00 W/m2 CLR
02:44 68.4 °F 63.7 °F 29.71 in Calm     85% 0 in 0.00 W/m2 CLR
02:49 68.4 °F 63.7 °F 29.70 in Calm     85% 0 in 0.00 W/m2 CLR
02:54 68.4 °F 63.7 °F 29.71 in Calm     85% 0 in 0.00 W/m2 CLR
02:59 68.4 °F 63.7 °F 29.70 in Calm     85% 0 in 0.00 W/m2 CLR
03:04 68.4 °F 63.7 °F 29.70 in Calm     85% 0 in 0.00 W/m2 CLR
03:09 68.3 °F 63.6 °F 29.71 in Calm     85% 0 in 0.00 W/m2 CLR
03:14 68.3 °F 63.6 °F 29.71 in Calm     85% 0 in 0.00 W/m2 CLR
03:19 68.2 °F 63.5 °F 29.71 in Calm     85% 0 in 0.00 W/m2 CLR
03:24 68.1 °F 63.8 °F 29.71 in Calm     86% 0 in 0.00 W/m2 CLR
03:29 68 °F 63.7 °F 29.71 in Calm     86% 0 in 0.00 W/m2 CLR
03:34 68 °F 63.7 °F 29.71 in Calm     86% 0 in 0.00 W/m2 CLR
03:39 67.9 °F 63.6 °F 29.71 in Calm     86% 0 in 0.00 W/m2 CLR
03:44 67.9 °F 63.6 °F 29.71 in Calm     86% 0 in 0.00 W/m2 CLR
03:49 67.9 °F 63.6 °F 29.71 in Calm     86% 0 in 0.00 W/m2 CLR
03:54 67.9 °F 63.6 °F 29.71 in Calm     86% 0 in 0.00 W/m2 CLR
03:59 67.9 °F 63.6 °F 29.71 in Calm     86% 0 in 0.00 W/m2 CLR
04:04 67.9 °F 63.6 °F 29.71 in Calm     86% 0 in 0.00 W/m2 CLR
04:09 67.9 °F 63.6 °F 29.72 in Calm     86% 0 in 0.00 W/m2 CLR
04:14 67.8 °F 63.5 °F 29.72 in Calm     86% 0 in 0.00 W/m2 CLR
04:19 67.7 °F 63.7 °F 29.73 in Calm     87% 0 in 0.00 W/m2 CLR
04:24 67.6 °F 63.6 °F 29.73 in Calm     87% 0 in 0.00 W/m2 CLR
04:29 67.6 °F 63.6 °F 29.74 in Calm     87% 0 in 0.00 W/m2 CLR
04:34 67.5 °F 63.5 °F 29.74 in Calm     87% 0 in 0.00 W/m2 CLR
04:39 67.4 °F 63.4 °F 29.73 in Calm     87% 0 in 0.00 W/m2 CLR
04:44 67.4 °F 63.4 °F 29.73 in Calm     87% 0 in 0.00 W/m2 CLR
04:49 67.3 °F 63.3 °F 29.74 in Calm     87% 0 in 0.00 W/m2 CLR
04:54 67.2 °F 63.2 °F 29.74 in Calm     87% 0 in 0.00 W/m2 CLR
04:59 67.2 °F 63.2 °F 29.75 in Calm     87% 0 in 0.00 W/m2 CLR
05:04 67.1 °F 63.1 °F 29.75 in Calm     87% 0 in 0.00 W/m2 CLR
05:09 67.1 °F 63.1 °F 29.75 in Calm     87% 0 in 0.00 W/m2 CLR
05:14 67 °F 63 °F 29.75 in Calm     87% 0 in 0.00 W/m2 CLR
05:19 67 °F 63 °F 29.75 in Calm     87% 0 in 0.00 W/m2 CLR
05:24 67 °F 63 °F 29.76 in Calm     87% 0 in 0.00 W/m2 CLR
05:29 67 °F 63 °F 29.77 in Calm     87% 0 in 0.00 W/m2 CLR
05:34 66.9 °F 62.9 °F 29.77 in Calm     87% 0 in 0.00 W/m2 CLR
05:39 66.9 °F 62.9 °F 29.77 in Calm     87% 0 in 0.00 W/m2 CLR
05:44 66.9 °F 62.9 °F 29.76 in Calm     87% 0 in 0.00 W/m2 CLR
05:49 66.9 °F 62.9 °F 29.75 in Calm     87% 0 in 0.00 W/m2 CLR
05:54 66.9 °F 62.9 °F 29.74 in Calm     87% 0 in 0.00 W/m2 CLR
05:59 66.9 °F 62.9 °F 29.74 in Calm     87% 0 in 0.00 W/m2 CLR
06:04 66.8 °F 62.8 °F 29.74 in Calm     87% 0 in 0.00 W/m2 CLR
06:09 66.8 °F 62.8 °F 29.74 in Calm     87% 0 in 0.00 W/m2 CLR
06:14 66.8 °F 62.8 °F 29.75 in Calm     87% 0 in 0.00 W/m2 CLR
06:19 66.8 °F 62.8 °F 29.75 in Calm     87% 0 in 0.00 W/m2 CLR
06:24 66.8 °F 62.8 °F 29.74 in ENE 1.2 mph   87% 0 in 0.00 W/m2 CLR
06:29 66.9 °F 62.6 °F 29.74 in ENE 1 mph 0.3 mph 86% 0 in 0.00 W/m2 CLR
06:34 66.9 °F 62.6 °F 29.73 in Calm     86% 0 in 0.00 W/m2 CLR
06:39 67 °F 62.3 °F 29.72 in NE 1.2 mph   85% 0 in 0.00 W/m2 CLR
06:44 67.2 °F 62.2 °F 29.73 in NE 2.3 mph 0.6 mph 84% 0 in 0.00 W/m2 CLR
06:49 67.4 °F 61.7 °F 29.74 in ENE 2.3 mph   82% 0 in 0.00 W/m2 CLR
06:54 67.6 °F 61.6 °F 29.75 in Calm     81% 0 in 0.00 W/m2 CLR
06:59 67.8 °F 61 °F 29.76 in ENE 3.5 mph 1.1 mph 79% 0 in 0.00 W/m2 CLR
07:04 67.9 °F 60.4 °F 29.77 in North 3.5 mph 0.8 mph 77% 0 in 0.00 W/m2 OVC
07:09 68 °F 60.2 °F 29.76 in NE 4.6 mph 1.3 mph 76% 0 in 0.00 W/m2 OVC
07:14 68 °F 59.4 °F 29.76 in NE 3.5 mph 0.1 mph 74% 0 in 0.00 W/m2 OVC
07:19 67.9 °F 58.5 °F 29.76 in ENE 3.5 mph 1.3 mph 72% 0 in 0.00 W/m2 OVC
07:24 67.8 °F 58.1 °F 29.77 in NE 1.2 mph   71% 0 in 0.00 W/m2 OVC
07:29 67.8 °F 58.1 °F 29.78 in Calm     71% 0 in 0.00 W/m2 OVC
07:34 67.7 °F 58 °F 29.79 in Calm     71% 0 in 0.00 W/m2 OVC
07:39 67.7 °F 57.6 °F 29.78 in Calm     70% 0 in 0.00 W/m2 OVC
07:44 67.7 °F 57.6 °F 29.78 in Calm     70% 0 in 0.00 W/m2 OVC
07:49 67.7 °F 57.6 °F 29.76 in Calm     70% 0 in 0.00 W/m2 OVC
07:54 67.6 °F 57.1 °F 29.75 in NE 3.5 mph   69% 0 in 0.00 W/m2 OVC
07:59 67.5 °F 56.6 °F 29.76 in ENE 2.3 mph 0.6 mph 68% 0 in 0.00 W/m2 OVC
08:04 67.5 °F 57 °F 29.77 in ENE 2.3 mph 0.5 mph 69% 0 in 0.00 W/m2 OVC
08:09 67.3 °F 56.8 °F 29.79 in NE 3.5 mph 0.9 mph 69% 0 in 0.00 W/m2 OVC
08:14 67.2 °F 56.7 °F 29.80 in Calm     69% 0 in 0.00 W/m2 OVC
08:19 67.1 °F 57 °F 29.80 in Calm     70% 0 in 0.00 W/m2 OVC
08:24 66.9 °F 57.2 °F 29.83 in Calm     71% 0 in 0.00 W/m2 OVC
08:29 66.7 °F 56.6 °F 29.86 in SW 3 mph 0.4 mph 70% 0 in 0.00 W/m2 OVC
08:34 66.6 °F 57.7 °F 29.95 in SSW 3.5 mph 1.6 mph 73% 0 in 0.00 W/m2 OVC
08:39 66.6 °F 58.1 °F 29.96 in South 4 mph 1.7 mph 74% 0.01 in 0.00 W/m2 RA
08:44 66.3 °F 58.1 °F 29.95 in NW 4 mph 1.5 mph 75% 0.01 in 0.00 W/m2 RA
08:49 65.9 °F 58.1 °F 29.94 in NW 2.3 mph 0.6 mph 76% 0.01 in 0.00 W/m2 OVC
08:54 65.7 °F 58.3 °F 29.90 in Calm     77% 0.02 in 0.00 W/m2 RA
08:59 65.2 °F 58.5 °F 29.87 in NE 3.5 mph 1.1 mph 79% 0.02 in 0.00 W/m2 RA
Coon Rapids Weather